Theta_e
338 336 334 335 335 334 333 333 333 333 333 333 332 331 330 330 331 333 333 333 332 331 329 327 326 323 317 314 314 313 310 306 304 303 304 303 304 303 303 303 303 303
337 336 334 334 334 334 333 333 333 333 333 333 332 331 330 331 332 333 333 333 331 329 327 326 324 320 315 313 312 311 308 304 304 304 303 303 303 303 303 303 303 302
337 335 334 334 334 333 333 333 334 333 333 333 332 331 331 331 333 333 332 331 329 328 327 324 320 316 313 312 310 309 306 304 303 303 303 303 302 303 302 302 302 302
336 335 335 334 333 333 333 333 333 333 333 332 331 330 331 332 332 333 331 328 327 328 326 320 314 313 313 312 309 306 304 303 303 303 303 302 302 302 302 301 302 301
335 334 334 334 333 333 332 332 333 332 332 331 330 330 331 332 332 332 329 326 328 328 322 315 313 313 314 312 308 304 303 303 303 302 302 302 302 301 301 301 301 301
335 334 334 334 333 332 332 333 332 331 330 329 329 331 332 332 331 330 327 326 328 326 318 312 314 315 313 311 308 304 303 302 303 302 301 302 301 301 301 301 301 301
335 335 334 334 333 332 332 333 332 331 330 330 330 331 332 332 331 329 327 328 328 323 315 313 316 317 314 310 306 303 302 302 302 302 301 301 301 301 301 300 300 300
336 334 333 333 332 332 333 333 333 332 330 330 330 331 331 331 331 329 328 328 326 320 314 314 316 315 312 309 305 302 302 302 301 301 301 301 301 301 300 300 300 300
336 334 333 332 332 331 332 333 333 332 330 330 331 331 331 331 330 329 328 326 324 319 314 313 314 312 309 305 303 302 302 302 301 301 300 300 300 300 300 300 300 300
336 334 333 332 331 331 332 333 333 331 330 330 331 331 331 330 329 328 326 323 321 318 314 314 313 310 306 303 302 302 302 301 301 301 300 300 300 300 300 300 300 300
335 334 332 331 330 330 332 332 331 330 330 331 332 331 330 329 328 326 323 321 319 317 315 314 312 308 304 302 301 301 301 301 301 300 300 300 300 300 300 300 299 299
333 332 331 330 330 331 332 331 330 330 331 331 331 330 329 329 327 324 321 320 318 315 313 311 309 306 303 302 301 301 301 300 300 300 300 299 299 299 299 299 299 299
333 332 331 330 330 331 331 330 330 330 331 331 331 330 329 328 327 323 320 318 316 314 311 309 307 304 302 301 301 301 300 300 300 300 299 299 299 299 299 299 299 299
332 332 331 330 330 331 331 330 330 330 331 331 330 329 329 328 326 322 319 316 314 311 310 308 305 303 301 301 301 300 300 300 300 299 299 299 299 299 299 299 299 299
331 331 331 330 331 331 331 330 330 330 331 330 329 328 328 326 323 320 318 316 314 311 309 307 305 303 301 300 300 300 300 300 299 299 299 299 299 299 299 299 299 299
330 330 331 331 331 331 331 331 330 331 330 329 328 328 326 324 322 320 318 316 314 312 309 307 305 302 301 300 300 300 300 299 300 299 299 299 299 299 299 299 299 299
331 330 331 331 331 331 331 330 331 331 330 328 327 327 325 323 321 320 318 315 313 311 309 307 304 301 300 299 299 299 299 299 299 299 299 299 299 299 299 299 299 299
331 330 331 331 331 330 331 331 331 330 329 328 327 326 324 323 322 320 318 315 312 309 308 306 304 301 300 300 300 300 299 299 300 299 299 299 299 299 299 299 299 299
332 330 330 331 332 331 331 331 331 330 328 328 327 326 325 325 324 322 319 317 313 310 308 306 305 303 301 301 300 300 300 300 300 300 299 299 299 299 299 298 298 299
332 330 330 331 331 331 330 330 330 329 328 327 326 325 325 325 324 324 322 319 316 312 308 307 306 305 303 302 302 301 301 300 300 300 300 299 299 299 298 298 298 298
332 331 330 330 331 330 329 329 329 329 328 327 326 325 325 325 325 324 322 320 318 314 310 307 306 306 305 304 303 302 302 301 301 301 300 300 299 299 299 298 298 298
331 330 330 330 330 329 328 328 329 329 328 327 327 325 325 325 324 323 322 320 319 317 313 309 307 307 306 305 304 304 303 302 302 302 302 301 300 299 299 298 298 298
331 331 330 330 329 328 328 328 328 329 328 328 327 326 325 324 323 322 321 320 320 319 317 313 310 308 307 306 305 305 304 304 304 303 302 301 300 300 299 298 298 297
332 331 330 330 328 328 328 328 329 329 328 328 327 326 325 324 323 322 321 321 321 321 320 317 313 310 308 306 306 305 305 305 304 304 303 302 300 299 299 298 297 297
332 331 330 330 328 327 328 328 329 328 328 327 326 326 325 324 323 322 322 322 321 320 318 316 314 311 309 307 307 306 306 306 305 304 303 302 300 299 299 298 297 297
333 332 331 330 327 326 327 328 328 328 327 326 326 325 325 324 323 323 323 322 321 319 317 314 313 311 309 308 308 307 306 306 305 304 303 301 299 299 299 298 298 297
Wind_Speed
33 32 31 30 28 26 23 23 22 22 22 22 22 22 20 20 19 19 18 17 17 16 15 14 14 13 13 13 12 12 12 11 11 11 12 11 11 11 10 10 10 10
33 32 31 30 29 26 23 22 21 21 21 21 21 21 21 20 19 19 18 17 17 16 14 15 14 12 12 11 10 10 10 11 11 11 11 11 11 10 10 11 10 10
33 32 31 30 28 25 23 22 21 20 20 20 20 21 21 20 19 19 18 17 16 15 13 13 12 12 12 10 10 10 10 10 11 11 11 11 11 11 11 11 11 10
33 32 31 29 27 24 22 21 20 19 19 20 20 20 20 20 20 20 18 16 16 14 13 12 12 12 11 10 10 9 10 11 12 12 12 12 11 12 12 12 12 11
33 32 31 28 26 23 21 20 19 19 19 20 20 20 20 20 20 19 18 17 16 14 12 13 12 11 10 10 9 9 11 13 13 13 12 13 13 12 12 12 12 11
33 32 31 28 25 23 21 20 20 20 19 19 19 19 20 20 20 19 19 18 16 13 13 15 13 11 9 9 9 10 12 13 14 13 13 13 14 14 13 13 12 11
33 32 30 28 26 23 21 21 21 20 19 18 19 20 20 20 20 19 18 17 15 13 15 16 13 9 8 9 11 12 13 14 14 14 14 15 15 15 14 13 12 11
34 32 31 29 27 24 23 22 22 21 19 19 20 21 21 20 19 19 17 15 13 13 16 14 10 8 10 11 12 14 15 16 16 16 16 16 16 15 14 13 12 11
33 32 31 29 27 26 24 23 22 21 20 20 21 21 21 19 19 18 16 14 13 14 15 13 10 10 12 13 14 15 17 17 17 17 17 17 16 15 14 13 12 12
33 32 31 30 28 26 25 24 23 21 21 21 21 21 20 19 19 18 16 14 14 15 14 12 11 12 13 14 15 16 17 17 18 18 17 17 16 15 14 13 13 13
34 33 32 30 28 26 25 25 23 21 21 22 22 22 20 19 18 17 15 15 15 14 13 11 12 13 13 14 16 17 18 18 18 18 18 18 17 15 15 14 14 14
35 33 31 29 26 26 25 24 23 22 22 23 23 21 20 19 18 15 14 14 14 13 12 12 12 13 14 15 17 18 19 19 19 19 19 19 18 17 16 15 15 15
34 33 31 28 25 25 26 24 23 22 22 24 23 21 20 18 17 15 14 14 13 12 12 12 12 13 15 16 17 19 20 20 21 21 21 20 19 17 16 16 15 14
34 32 31 28 24 25 26 24 23 23 24 24 23 20 19 17 16 14 14 14 13 13 13 13 13 14 16 17 18 20 21 21 22 22 22 21 19 18 17 16 15 15
33 32 31 28 25 25 26 25 24 24 25 25 22 19 17 15 15 15 15 14 14 14 14 14 15 15 17 18 19 20 21 22 23 23 23 21 20 19 18 17 16 15
33 32 31 28 25 26 27 26 25 26 26 25 21 18 16 16 16 16 15 14 14 15 15 16 16 16 17 18 19 20 22 23 24 23 23 21 20 19 19 18 16 15
33 32 29 26 24 26 28 27 27 28 27 24 21 18 17 17 17 15 14 14 14 16 16 16 16 17 18 19 19 21 22 23 24 23 23 21 20 19 18 17 16 16
33 31 28 25 24 26 28 28 28 29 27 24 21 19 19 18 16 14 13 14 15 16 17 16 16 17 18 19 20 21 22 23 23 23 22 21 20 19 18 16 17 19
33 30 27 25 23 25 28 29 29 30 28 25 22 21 20 18 15 13 13 13 15 16 16 16 16 17 18 19 20 21 22 23 23 23 22 21 20 19 18 18 20 21
32 29 26 24 22 24 28 30 31 30 28 25 23 22 21 18 15 13 12 12 14 15 16 16 16 16 17 17 19 20 21 22 22 22 22 20 19 19 19 20 21 22
31 28 26 24 22 24 29 31 32 31 29 26 25 23 21 18 15 13 11 11 11 12 15 16 15 16 16 17 18 19 21 22 22 22 22 20 20 20 20 21 22 22
30 28 26 25 23 24 30 33 33 32 30 27 25 23 20 18 15 13 11 9 9 10 13 15 16 16 17 17 17 18 20 21 21 22 21 20 20 20 20 20 21 22
30 28 26 25 24 25 30 34 34 33 31 28 26 24 21 19 16 13 11 9 8 9 12 14 16 17 18 17 18 19 20 21 21 21 21 20 20 20 20 20 21 21
29 27 26 25 25 26 30 33 34 33 32 29 27 25 21 18 16 13 11 10 10 10 11 13 15 17 18 18 19 19 20 20 21 21 21 21 21 20 19 19 20 21
27 26 26 25 25 26 29 32 34 33 32 30 27 24 21 18 17 14 13 13 13 13 13 14 15 17 18 19 19 20 20 20 20 22 22 23 22 21 20 19 20 22
26 25 25 25 25 27 30 32 34 34 32 30 28 24 22 20 18 16 15 15 15 16 16 17 16 17 19 20 20 21 22 21 22 23 24 24 23 23 22 22 23 24
Wind_Direction
218 219 219 221 223 226 227 227 227 226 224 223 224 227 228 229 230 232 236 239 243 246 247 248 248 241 231 227 229 233 232 230 225 220 219 216 213 213 216 218 216 218
218 219 221 222 223 224 226 228 230 227 224 222 224 227 229 231 233 235 238 240 243 244 243 244 243 235 229 227 228 230 229 224 218 215 213 211 210 211 212 215 213 213
219 219 219 220 220 222 224 226 228 226 223 222 223 226 228 230 234 236 238 240 243 245 241 237 232 226 225 223 223 225 225 221 215 211 207 205 207 207 207 209 208 207
218 218 217 218 219 221 224 226 225 221 218 219 222 222 223 227 231 236 239 239 243 247 239 225 221 223 224 222 222 222 220 218 212 207 203 201 202 204 205 205 204 203
218 217 216 217 218 220 224 226 221 215 214 217 219 218 218 223 229 235 238 238 242 244 228 213 215 222 228 229 227 224 220 216 208 203 202 202 201 201 203 205 203 200
218 217 216 217 218 220 222 220 215 212 215 218 218 216 217 222 228 233 235 238 244 237 215 210 214 220 233 239 234 226 220 215 207 201 202 204 202 201 201 203 203 198
217 216 216 217 218 219 218 215 213 215 220 222 219 217 218 223 229 234 235 241 244 226 211 215 221 224 236 243 238 228 217 211 208 203 202 205 204 203 201 200 202 200
218 217 217 218 218 216 214 212 214 218 222 222 218 217 219 225 232 234 235 240 235 218 212 219 224 228 237 240 235 227 217 210 208 205 204 206 207 205 202 199 200 200
220 220 219 218 216 214 213 212 214 218 220 219 216 216 220 226 231 232 235 234 222 211 212 217 221 225 229 231 228 223 217 210 207 207 206 207 208 207 203 200 199 199
221 220 217 216 216 214 211 211 212 215 216 215 214 217 222 226 227 229 229 221 210 208 213 217 222 225 225 225 223 219 215 211 208 207 205 206 208 208 205 202 200 199
218 215 215 216 215 211 208 208 210 213 215 213 212 217 223 225 226 225 218 208 205 210 216 221 224 226 226 223 219 215 211 211 211 208 205 205 207 207 207 205 202 202
214 211 213 216 211 204 204 206 208 212 214 212 213 218 222 225 226 221 209 203 208 212 216 221 223 224 226 223 220 215 210 210 212 210 206 205 206 207 208 208 205 204
213 209 212 215 207 200 203 206 208 211 213 212 214 218 222 225 226 220 208 205 210 214 215 219 222 223 224 223 220 216 212 211 211 210 208 206 207 208 209 210 208 205
212 208 211 215 208 201 202 206 208 210 210 211 215 219 223 227 227 220 210 207 210 213 215 218 221 223 224 223 220 217 214 213 212 211 210 208 208 209 210 211 207 203
211 209 211 215 211 203 202 205 207 207 208 210 214 220 224 222 219 215 211 211 213 215 216 218 221 223 224 223 221 218 216 215 214 214 213 212 211 209 209 209 205 201
210 210 212 214 212 205 202 204 205 204 206 209 212 217 219 214 209 210 212 214 219 220 219 220 221 221 222 223 223 221 219 218 217 216 216 215 214 213 210 207 203 200
209 211 213 215 213 205 201 202 203 203 205 208 210 211 213 209 207 208 211 215 222 224 223 222 221 220 220 221 221 220 221 222 221 219 218 217 216 217 215 209 202 200
208 210 213 217 213 203 200 200 201 203 205 207 208 208 208 208 206 206 211 217 222 224 224 223 222 221 220 220 220 220 221 224 225 223 222 219 218 218 216 211 205 203
208 211 213 216 213 202 199 200 200 203 205 207 207 207 208 209 206 206 212 220 225 226 224 224 224 222 220 220 219 220 221 224 226 226 226 223 221 220 216 211 209 208
209 213 214 216 213 203 198 199 201 204 206 207 208 208 208 209 208 209 215 222 228 230 228 228 227 224 222 220 220 220 222 225 227 228 228 227 225 223 217 212 211 212
210 213 214 216 216 206 200 200 202 205 206 208 210 212 212 212 212 215 219 225 230 234 234 232 229 227 225 224 223 223 224 227 228 229 229 228 226 225 220 214 214 215
210 212 215 219 219 209 202 201 203 206 209 211 213 214 212 210 211 215 221 226 233 240 240 236 232 230 229 229 229 228 228 229 229 230 230 229 228 226 220 216 215 214
211 212 216 221 222 212 204 204 205 207 210 214 215 214 211 207 208 214 221 231 249 256 250 243 238 235 233 233 233 232 231 231 230 229 231 231 230 227 222 218 216 214
211 216 221 225 223 214 207 207 208 210 212 214 216 218 216 211 211 214 223 241 258 263 257 249 243 240 238 236 236 235 234 232 231 231 230 229 228 226 221 217 215 216
215 222 228 231 226 216 210 210 210 211 213 214 216 220 221 217 214 218 230 244 251 252 250 246 243 241 237 234 234 234 234 233 232 230 228 227 228 226 220 217 218 219
223 228 233 237 230 216 211 212 213 213 214 213 213 218 222 221 218 223 233 241 244 245 243 242 242 239 235 236 238 234 233 235 234 229 228 230 230 227 224 225 225 222